Change the Weather History Date:

Friday, April 19, 2013

  Actual Average (KDBQ) Record (KDBQ)
Temperature  
Mean Temperature 34 °F 50 °F  
Max Temperature 37 °F 60 °F 83 °F (1985)
Min Temperature 32 °F 39 °F 22 °F (1988)
Degree Days  
Heating Degree Days 30 16  
Month to date heating degree days 362  
Since 1 July heating degree days 6673  
Cooling Degree Days 0 0  
Month to date cooling degree days 0  
Year to date cooling degree days 0  
Moisture  
Dew Point 29 °F    
Average Humidity 82    
Maximum Humidity 93    
Minimum Humidity 70    
Precipitation  
Precipitation 0.00 in 0.13 in 1.98 in (1877)
Month to date precipitation 2.22  
Year to date precipitation 7.24  
Snow  
Snow 0.00 in 0.00 in - ()
Month to date snowfall 1.6  
Since 1 July snowfall 41.5  
Snow Depth -    
Sea Level Pressure  
Sea Level Pressure 29.63 in    
Wind  
Wind Speed 21 mph (West)    
Max Wind Speed 30 mph    
Max Gust Speed 41 mph    
Visibility 10 miles    
Events      
T = Trace of Precipitation, MM = Missing Value Source: NWS Daily Summary

Daily Weather History Graph

Daily Weather History Graph

Search for Another Location

Airport or City:

Trip Planner

Search our weather history database for the weather conditions in past years. The results will help you decide how hot, cold, wet, or windy it might be!

Date:

Astronomy

Apr. 19, 2013 Rise Set
Actual Time 6:13 AM CDT 7:48 PM CDT
Civil Twilight 5:43 AM CDT 8:18 PM CDT
Nautical Twilight 5:07 AM CDT 8:54 PM CDT
Astronomical Twilight 4:29 AM CDT 9:33 PM CDT
Moon 1:25 PM CDT (4/19) 2:37 AM CDT (4/19)
Length of Visible Light 14h 34m
Length of Day
13h 35m
First Quarter, 62% of the Moon is Illuminated
Apr 19
First Quarter
Apr 25
Full
May 2
Last Quarter
May 9
New
May 17
First Quarter

Hourly Weather History & Observations

Time (CDT) Temp. Windchill Dew Point Humidity Pressure Visibility Wind Dir Wind Speed Gust Speed Precip Events Conditions
12:15 AM 33.8 °F 21.6 °F 32.0 °F 93% 29.47 in 7.0 mi WSW 23.0 mph 29.9 mph N/A   Overcast
12:35 AM 33.8 °F 22.8 °F 32.0 °F 93% 29.46 in 10.0 mi WSW 18.4 mph 27.6 mph N/A   Overcast
12:55 AM 33.8 °F 22.8 °F 32.0 °F 93% 29.46 in 10.0 mi WSW 18.4 mph 25.3 mph N/A   Overcast
1:15 AM 33.8 °F 22.8 °F 32.0 °F 93% 29.45 in 10.0 mi WSW 18.4 mph 24.2 mph N/A   Overcast
1:35 AM 33.8 °F 21.6 °F 32.0 °F 93% 29.45 in 10.0 mi WSW 23.0 mph 32.2 mph N/A   Overcast
1:55 AM 33.8 °F 21.9 °F 32.0 °F 93% 29.45 in 10.0 mi WSW 21.9 mph 28.8 mph N/A   Overcast
2:15 AM 33.8 °F 20.1 °F 30.2 °F 87% 29.45 in 10.0 mi West 29.9 mph 40.3 mph N/A   Overcast
2:35 AM 33.8 °F 20.8 °F 30.2 °F 87% 29.45 in 10.0 mi WSW 26.5 mph 35.7 mph N/A   Overcast
3:15 AM 33.8 °F 21.0 °F 30.2 °F 87% 29.45 in 10.0 mi West 25.3 mph 32.2 mph N/A   Overcast
3:35 AM 33.8 °F 21.9 °F 30.2 °F 87% 29.45 in 10.0 mi WSW 21.9 mph 33.4 mph N/A   Overcast
3:55 AM 33.8 °F 21.9 °F 30.2 °F 87% 29.45 in 10.0 mi WSW 21.9 mph 29.9 mph N/A   Overcast
4:15 AM 33.8 °F 21.9 °F 30.2 °F 87% 29.46 in 10.0 mi West 21.9 mph 33.4 mph N/A   Overcast
4:35 AM 33.8 °F 22.2 °F 28.4 °F 81% 29.46 in 10.0 mi WSW 20.7 mph 31.1 mph N/A   Overcast
4:55 AM 32.0 °F 19.2 °F 30.2 °F 93% 29.46 in 10.0 mi WSW 23.0 mph 28.8 mph N/A   Overcast
5:15 AM 32.0 °F 19.2 °F 30.2 °F 93% 29.46 in 10.0 mi WSW 23.0 mph 28.8 mph N/A   Overcast
5:35 AM 32.0 °F 19.8 °F 30.2 °F 93% 29.46 in 10.0 mi WSW 20.7 mph 28.8 mph N/A   Overcast
5:55 AM 32.0 °F 19.8 °F 30.2 °F 93% 29.47 in 10.0 mi WSW 20.7 mph 25.3 mph N/A   Overcast
6:15 AM 32.0 °F 20.1 °F 30.2 °F 93% 29.47 in 10.0 mi WSW 19.6 mph 28.8 mph N/A   Overcast
6:35 AM 32.0 °F 19.8 °F 30.2 °F 93% 29.47 in 7.0 mi West 20.7 mph 27.6 mph N/A   Overcast
6:55 AM 32.0 °F 19.2 °F 30.2 °F 93% 29.48 in 7.0 mi West 23.0 mph 31.1 mph N/A   Overcast
7:15 AM 32.0 °F 20.1 °F 30.2 °F 93% 29.48 in 7.0 mi West 19.6 mph 25.3 mph N/A   Overcast
7:35 AM 32.0 °F 20.1 °F 30.2 °F 93% 29.48 in 5.0 mi West 19.6 mph 26.5 mph N/A   Overcast
7:55 AM 32.0 °F 19.5 °F 30.2 °F 93% 29.49 in 4.0 mi West 21.9 mph 32.2 mph N/A   Overcast
8:15 AM 32.0 °F 19.5 °F 30.2 °F 93% 29.49 in 7.0 mi West 21.9 mph 27.6 mph N/A   Overcast
8:35 AM 33.8 °F 21.0 °F 30.2 °F 87% 29.49 in 10.0 mi West 25.3 mph 32.2 mph N/A   Overcast
8:55 AM 33.8 °F 20.1 °F 30.2 °F 87% 29.50 in 10.0 mi West 29.9 mph 33.4 mph N/A   Overcast
9:15 AM 33.8 °F 20.5 °F 28.4 °F 81% 29.51 in 10.0 mi West 27.6 mph 38.0 mph N/A   Overcast
9:35 AM 35.6 °F 23.2 °F 28.4 °F 75% 29.52 in 10.0 mi West 26.5 mph 36.8 mph N/A   Overcast
9:55 AM 33.8 °F 21.9 °F 28.4 °F 81% 29.52 in 5.0 mi West 21.9 mph 33.4 mph N/A   Overcast
10:15 AM 33.8 °F 23.5 °F 28.4 °F 81% 29.53 in 5.0 mi West 16.1 mph 31.1 mph N/A   Overcast
10:35 AM 35.6 °F 23.0 °F 30.2 °F 81% 29.54 in 10.0 mi West 27.6 mph 32.2 mph N/A   Overcast
10:55 AM 33.8 °F 22.2 °F 28.4 °F 81% 29.55 in 10.0 mi West 20.7 mph 27.6 mph N/A   Overcast
11:15 AM 35.6 °F 23.7 °F 28.4 °F 75% 29.56 in 10.0 mi West 24.2 mph 35.7 mph N/A   Overcast
11:35 AM 35.6 °F 23.7 °F 28.4 °F 75% 29.57 in 10.0 mi West 24.2 mph 38.0 mph N/A   Overcast
11:55 AM 33.8 °F 21.0 °F 28.4 °F 81% 29.57 in 10.0 mi West 25.3 mph 35.7 mph N/A   Overcast
12:15 PM 35.6 °F 23.2 °F 28.4 °F 75% 29.58 in 10.0 mi West 26.5 mph 38.0 mph N/A   Overcast
12:35 PM 35.6 °F 23.7 °F 28.4 °F 75% 29.59 in 10.0 mi West 24.2 mph 41.4 mph N/A   Overcast
12:55 PM 35.6 °F 23.4 °F 28.4 °F 75% 29.60 in 10.0 mi West 25.3 mph 32.2 mph N/A   Overcast
1:15 PM 35.6 °F 24.5 °F 28.4 °F 75% 29.61 in 10.0 mi West 20.7 mph 29.9 mph N/A   Overcast
1:35 PM 35.6 °F 23.4 °F 28.4 °F 75% 29.62 in 10.0 mi West 25.3 mph 34.5 mph N/A   Overcast
1:55 PM 35.6 °F 24.2 °F 28.4 °F 75% 29.63 in 10.0 mi West 21.9 mph 35.7 mph N/A   Overcast
2:15 PM 37.4 °F 25.2 °F 28.4 °F 70% 29.64 in 10.0 mi West 28.8 mph 36.8 mph N/A   Overcast
2:35 PM 35.6 °F 24.5 °F 28.4 °F 75% 29.65 in 10.0 mi West 20.7 mph 40.3 mph N/A   Overcast
2:55 PM 35.6 °F 23.2 °F 28.4 °F 75% 29.66 in 10.0 mi West 26.5 mph 34.5 mph N/A   Overcast
3:15 PM 35.6 °F 23.7 °F 28.4 °F 75% 29.66 in 10.0 mi West 24.2 mph 32.2 mph N/A   Overcast
3:35 PM 35.6 °F 23.4 °F 28.4 °F 75% 29.67 in 10.0 mi West 25.3 mph 31.1 mph N/A   Overcast
3:55 PM 35.6 °F 25.2 °F 28.4 °F 75% 29.68 in 10.0 mi WNW 18.4 mph 32.2 mph N/A   Overcast
4:15 PM 33.8 °F 21.9 °F 30.2 °F 87% 29.70 in 10.0 mi West 21.9 mph 32.2 mph N/A   Overcast
4:35 PM 35.6 °F 24.8 °F 28.4 °F 75% 29.71 in 10.0 mi West 19.6 mph 28.8 mph N/A   Overcast
4:55 PM 35.6 °F 26.2 °F 26.6 °F 70% 29.72 in 10.0 mi WNW 15.0 mph 23.0 mph N/A   Overcast
5:15 PM 35.6 °F 25.5 °F 26.6 °F 70% 29.73 in 10.0 mi WNW 17.3 mph 23.0 mph N/A   Overcast
5:35 PM 35.6 °F 25.5 °F 26.6 °F 70% 29.74 in 10.0 mi WNW 17.3 mph 21.9 mph N/A   Overcast
5:55 PM 33.8 °F 23.2 °F 28.4 °F 81% 29.76 in 10.0 mi West 17.3 mph 26.5 mph N/A   Overcast
6:15 PM 33.8 °F 24.3 °F 28.4 °F 81% 29.77 in 10.0 mi WNW 13.8 mph 20.7 mph N/A   Overcast
6:35 PM 33.8 °F 23.9 °F 26.6 °F 75% 29.78 in 10.0 mi West 15.0 mph 18.4 mph N/A   Overcast
6:55 PM 35.6 °F 25.9 °F 26.6 °F 70% 29.79 in 10.0 mi WNW 16.1 mph 32.2 mph N/A   Overcast
7:15 PM 33.8 °F 22.5 °F 26.6 °F 75% 29.80 in 10.0 mi West 19.6 mph 25.3 mph N/A   Mostly Cloudy
7:35 PM 33.8 °F 23.5 °F 26.6 °F 75% 29.81 in 10.0 mi West 16.1 mph 24.2 mph N/A   Overcast
7:55 PM 33.8 °F 23.5 °F 26.6 °F 75% 29.83 in 10.0 mi West 16.1 mph 28.8 mph N/A   Overcast
8:15 PM 33.8 °F 23.5 °F 26.6 °F 75% 29.85 in 10.0 mi WNW 16.1 mph 23.0 mph N/A   Overcast
8:35 PM 33.8 °F 25.8 °F 26.6 °F 75% 29.86 in 10.0 mi West 10.4 mph - N/A   Overcast
8:55 PM 33.8 °F 25.3 °F 26.6 °F 75% 29.87 in 10.0 mi West 11.5 mph 17.3 mph N/A   Overcast
9:15 PM 33.8 °F 25.8 °F 26.6 °F 75% 29.89 in 10.0 mi West 10.4 mph - N/A   Mostly Cloudy
9:35 PM 32.0 °F 23.0 °F 26.6 °F 80% 29.89 in 10.0 mi West 11.5 mph - N/A   Scattered Clouds
9:55 PM 32.0 °F 24.2 °F 26.6 °F 80% 29.91 in 10.0 mi West 9.2 mph - N/A   Clear
10:15 PM 32.0 °F 24.8 °F 28.4 °F 87% 29.91 in 10.0 mi West 8.1 mph - N/A   Mostly Cloudy
10:35 PM 32.0 °F 24.2 °F 26.6 °F 80% 29.92 in 10.0 mi WNW 9.2 mph - N/A   Scattered Clouds
10:55 PM 32.0 °F 24.2 °F 26.6 °F 80% 29.94 in 10.0 mi WNW 9.2 mph - N/A   Scattered Clouds
11:15 PM 32.0 °F 24.8 °F 26.6 °F 80% 29.94 in 10.0 mi West 8.1 mph - N/A   Scattered Clouds
11:35 PM 32.0 °F 24.2 °F 26.6 °F 80% 29.95 in 10.0 mi West 9.2 mph - N/A   Overcast
11:55 PM 32.0 °F 24.8 °F 26.6 °F 80% 29.96 in 10.0 mi WNW 8.1 mph - N/A   Overcast